Williston, ND

8:32 PM CST on February 25, 2017 (GMT -0600)
Sloulin International

Weather History for KISN - October, 2013

Change the Weather History Date:

Thursday, October 10, 2013

  Actual Average Record
Temperature  
Mean Temperature 55 °F 46 °F  
Max Temperature 66 °F 60 °F 90 °F (1955)
Min Temperature 43 °F 32 °F 12 °F (1919)
Degree Days  
Heating Degree Days 10 19  
Month to date heating degree days 172 173  
Since 1 July heating degree days 358 519  
Cooling Degree Days 0 0  
Month to date cooling degree days 0 0  
Year to date cooling degree days 405 455  
Growing Degree Days 4 (Base 50)    
Moisture  
Dew Point 42 °F    
Average Humidity 63    
Maximum Humidity 89    
Minimum Humidity 37    
Precipitation  
Precipitation 0.02 in 0.03 in 0.63 in (1923)
Month to date precipitation 0.13 0.32  
Year to date precipitation 17.92 12.50  
Snow  
Snow 0.00 in 0.00 in 1.70 in (1924)
Month to date snowfall 0.0 0.5  
Since 1 July snowfall 0.0 0.7  
Snow Depth 0.00 in    
Sea Level Pressure  
Sea Level Pressure 29.82 in    
Wind  
Wind Speed 5 mph (East)    
Max Wind Speed 16 mph    
Max Gust Speed 22 mph    
Visibility 10 miles    
Events Rain    
T = Trace of Precipitation, MM = Missing Value Source: NWS Daily Summary

Daily Weather History Graph

Daily Weather History Graph

Search for Another Location

Airport or City:

Trip Planner

Search our weather history database for the weather conditions in past years. The results will help you decide how hot, cold, wet, or windy it might be!

Date:

Astronomy

Oct. 10, 2013 Rise Set
Actual Time 8:07 AM CDT 7:14 PM CDT
Civil Twilight 7:35 AM CDT 7:46 PM CDT
Nautical Twilight 6:59 AM CDT 8:22 PM CDT
Astronomical Twilight 6:23 AM CDT 8:58 PM CDT
Moon 2:18 PM CDT (10/10) 11:38 PM CDT (10/10)
Length of Visible Light 12h 10m
Length of Day
11h 07m
Waxing Crescent, 36% of the Moon is Illuminated
Oct 10
Waxing Crescent
Oct 11
First Quarter
Oct 18
Full
Oct 26
Last Quarter
Nov 3
New

Hourly Weather History & Observations

Time (CDT) Temp. Dew Point Humidity Pressure Visibility Wind Dir Wind Speed Gust Speed Precip Events Conditions
12:52 AM 48.0 °F 44.1 °F 86% 30.01 in 7.0 mi East 3.5 mph - 0.09 in Rain Rain
1:52 AM 48.9 °F 46.0 °F 90% 29.98 in 10.0 mi North 4.6 mph - 0.03 in Rain Light Rain
2:52 AM 48.9 °F 45.0 °F 86% 29.96 in 10.0 mi East 4.6 mph - 0.00 in   Overcast
3:52 AM 48.9 °F 43.0 °F 80% 29.94 in 10.0 mi Calm Calm - N/A   Scattered Clouds
4:52 AM 48.0 °F 43.0 °F 83% 29.92 in 10.0 mi North 4.6 mph - N/A   Overcast
5:52 AM 48.9 °F 42.1 °F 77% 29.90 in 10.0 mi East 5.8 mph - N/A   Overcast
6:52 AM 46.9 °F 41.0 °F 80% 29.90 in 10.0 mi SE 3.5 mph - N/A   Mostly Cloudy
7:52 AM 46.9 °F 41.0 °F 80% 29.89 in 10.0 mi East 5.8 mph - N/A   Mostly Cloudy
8:52 AM 43.0 °F 39.0 °F 86% 29.90 in 10.0 mi Calm Calm - N/A   Partly Cloudy
9:52 AM 51.1 °F 43.0 °F 74% 29.87 in 10.0 mi SE 6.9 mph - N/A   Clear
10:52 AM 54.0 °F 42.1 °F 64% 29.85 in 10.0 mi ESE 6.9 mph - N/A   Clear
11:52 AM 59.0 °F 39.9 °F 49% 29.81 in 10.0 mi SE 11.5 mph 19.6 mph N/A   Clear
12:52 PM 61.0 °F 39.9 °F 46% 29.78 in 10.0 mi SE 11.5 mph - N/A   Clear
1:52 PM 64.0 °F 39.9 °F 41% 29.76 in 10.0 mi SSE 8.1 mph - N/A   Clear
2:52 PM 63.0 °F 37.9 °F 40% 29.73 in 10.0 mi SE 5.8 mph - N/A   Clear
3:52 PM 64.0 °F 37.0 °F 37% 29.71 in 10.0 mi SE 9.2 mph - N/A   Clear
4:52 PM 66.0 °F 39.0 °F 37% 29.70 in 10.0 mi SSE 8.1 mph - N/A   Clear
5:52 PM 63.0 °F 41.0 °F 45% 29.70 in 10.0 mi SE 5.8 mph - N/A   Clear
6:52 PM 60.1 °F 42.1 °F 51% 29.69 in 10.0 mi ENE 3.5 mph - N/A   Clear
7:52 PM 57.0 °F 44.1 °F 62% 29.70 in 10.0 mi East 4.6 mph - N/A   Clear
8:52 PM 55.0 °F 45.0 °F 69% 29.70 in 10.0 mi North 4.6 mph - N/A   Clear
9:52 PM 53.1 °F 45.0 °F 74% 29.70 in 10.0 mi North 4.6 mph - N/A   Clear
10:52 PM 52.0 °F 44.1 °F 74% 29.70 in 10.0 mi Calm Calm - N/A   Clear
11:52 PM 52.0 °F 45.0 °F 77% 29.69 in 10.0 mi NNE 4.6 mph - N/A   Partly Cloudy